Terminal Aerodrome Forecast
Issued by NWS Quad Cities IA IL

Home | Current Version | Previous Version | Text Only | Print | Product List | Glossary On
Versions: 1 2 3 4 5 6 7 8 9 10 11 12 13 14 15 16 17 18 19 20 21
000
FTUS43 KDVN 312008 AAA
TAFMLI
TAF AMD
KMLI 312008Z 3120/0118 18008KT P6SM BKN100
      TEMPO 3120/3124 3SM TSRA OVC040CB
     FM010000 18005KT P6SM VCTS BKN035CB
     FM010400 24004KT P6SM SCT200=

USA.gov is the U.S. government's official web portal to all federal, state and local government web resources and services.